Regional Weather Roundup
Issued by NWS

Home | Current Version | Previous Version | Graphics & Text | Print | Product List | Glossary On
Versions: 1 2 3 4 5 6 7 8 9 10 11 12 13 14 15 16 17 18 19 20 21 22 23 24 25 26 27 28 29 30 31 32 33 34 35 36 37 38 39 40 41 42 43 44 45 46 47 48 49 50
124
ASUS43 KMPX 242101
RWRMN
WEATHER ROUNDUP FOR MINNESOTA
NATIONAL WEATHER SERVICE TWIN CITIES/CHANHASSEN MN
400 PM CDT TUE APR 24 2018


NOTE: "FAIR" INDICATES FEW OR NO CLOUDS BELOW 12,000 FEET WITH NO
SIGNIFICANT WEATHER AND/OR OBSTRUCTIONS TO VISIBILITY. N/A MEANS
CURRENT SKY AND/OR WEATHER CONDITIONS ARE NOT AVAILABLE.

MNZ060>063-068>070-242200-
   Twin Cities Metro

CITY           SKY/WX    TMP DP  RH WIND       PRES   REMARKS
TWIN CITIES    PTSUNNY   63  34  33 N22G28    30.16S
ST PAUL        FAIR      61  33  35 N17G26    30.16S
CRYSTAL        PTSUNNY   57  35  43 N18G25    30.18R
BLAINE         PTSUNNY   55  36  47 N21G28    30.18S
LAKEVILLE      FAIR      61  34  36 N16G22    30.14R
EDEN PRAIRIE   FAIR      61  35  37 N16G24    30.15S
SOUTH ST PAUL  FAIR      62  32  31 N18       30.14S
LAKE ELMO      FAIR      61  34  36 N16G23    30.16S
$$
MNZ001>005-007-008-013>017-022>024-027-028-242200-
   Northwest Minnesota

CITY           SKY/WX    TMP DP  RH WIND       PRES   REMARKS
BEMIDJI        FAIR      51  26  38 N17G23    30.27S
HALLOCK        FAIR      54  19  26 N16G24    30.36F
ROSEAU         FAIR      48  30  49 N10G21    30.34S
WARROAD        FAIR      39  27  60 E10       30.35S
THIEF RVR FALL FAIR      50  24  36 N20G26    30.33F
CROOKSTON      FAIR      52  30  43 N17       30.35S
FOSSTON        FAIR      52  28  40 N22G28    30.31S
DETROIT LAKES  FAIR      52  32  46 N22G28    30.30F
MOORHEAD       FAIR      54  30  40 N23G30    30.34F
PARK RAPIDS    FAIR      54  24  31 N16G28    30.24F
MAHNOMEN       FAIR      52  30  42 N17G28    30.30F
$$
MNZ006-009>011-018-025>026-242200-
   North Central Minnesota

CITY           SKY/WX    TMP DP  RH WIND       PRES   REMARKS
BAUDETTE       FAIR      41  24  51 N12       30.33F
FLAG ISLAND    FAIR      39  23  52 NW12      30.33F
INTL FALLS     FAIR      43  25  49 N14G23    30.29S
WASKISH        PTSUNNY   45  27  49 N12G21    30.31S
BIG FORK       FAIR      48  25  40 N8G18     30.25S
LONGVILLE      FAIR      54  23  30 N9G20     30.24F
GRAND RAPIDS   FAIR      52  26  36 NW20      30.23F
CRANE LAKE     FAIR      43  23  45 N10G17    30.28R
ORR            FAIR      46  21  36 NW10G17   30.22S
COOK           FAIR      48  27  43 NW10G17   30.23R
WALKER         FAIR      52  25  35 N13G24    30.24F
$$
MNZ012-019>021-037-242200-
   Northeast Minnesota

CITY           SKY/WX    TMP DP  RH WIND       PRES   REMARKS
DULUTH         FAIR      55  29  36 NW13G21   30.16F
ELY            FAIR      48  25  40 NW15G22   30.20R
HIBBING        FAIR      50  27  40 NW21G26   30.20S
EVELETH        FAIR      53  26  35 NW15G22   30.21R
DULUTH HARBOR  FAIR      54  34  47 CALM      30.19F
TWO HARBORS    FAIR      61  36  39 NW7       30.15F
SILVER BAY     FAIR      57  27  30 W8        30.14F
GRAND MARAIS     N/A     42  33  70 SW10      30.16F
G MARAIS ARPRT FAIR      48  21  34 W8G16     30.15S
$$
MNZ029>031-032-039>041-046>048-054>057-064-242200-
   West Central Minnesota

CITY           SKY/WX    TMP DP  RH WIND       PRES   REMARKS
FERGUS FALLS   FAIR      54  32  43 N18G30    30.27S
WHEATON        CLOUDY    54  34  47 N21G28    30.33S
MORRIS         CLOUDY    54  37  54 N17G23    30.27F
ALEXANDRIA     FAIR      57  31  37 NW13      30.26F
ELBOW LAKE     FAIR      51  30  44 N16G24    30.28F
WADENA         FAIR      54  30  40 N15       30.25S
GLENWOOD       FAIR      55  36  47 NW16      30.25F
APPLETON       CLOUDY    52  39  62 N13       30.28F
BENSON         CLOUDY    54  37  54 N13G22    30.28F
ORTONVILLE     CLOUDY    52  37  58 N21       30.30F
WILLMAR        FAIR      50  39  66 N16       30.28S
$$
MNZ033>034-036-042>043-049>051-058-059-242200-
   Central Minnesota

CITY           SKY/WX    TMP DP  RH WIND       PRES   REMARKS
ST CLOUD       FAIR      55  35  47 N14       30.21F
SAUK CENTRE    FAIR      54  32  43 N14       30.24F
PAYNESVILLE    FAIR      51  38  59 N10G17    30.24S
AITKIN         FAIR      54  27  35 NW13G18   30.20F
PINE RIVER     FAIR      54  28  37 N8G17     30.25F
BRAINERD       FAIR      57  23  26 N15       30.22F
STAPLES        FAIR      55  23  28 NW14      30.23F
LONG PRAIRIE   FAIR      54  32  43 NW14G21   30.24F
LITTLE FALLS   FAIR      54  23  30 N7        30.22F
LITCHFIELD     FAIR      52  43  71 N14       30.23S
BUFFALO        FAIR      53  40  60 N12       30.21F
MAPLE LAKE     FAIR      52  43  70 N14       30.22F
HUTCHINSON     FAIR      53  45  74 N14G21    30.23R
$$
MNZ037-044-045-052-053-242200-
   East Central Minnesota

CITY           SKY/WX    TMP DP  RH WIND       PRES   REMARKS
PRINCETON      FAIR      55  39  54 N10G17    30.21F
MORA           FAIR      54  36  50 NW7G18    30.21F
CAMBRIDGE      FAIR      55  39  54 N8        30.20F
RUSH CITY      PTSUNNY   54  37  53 N10G16    30.20F
MOOSE LAKE     FAIR      54  32  43 W8        30.18F
HINCKLEY       FAIR      54  36  50 NW9       30.19F
CLOQUET        FAIR      55  25  30 N12G18    30.17F
MCGREGOR       FAIR      55  28  35 NW10G20   30.20F
$$
MNZ071>073-080-081-089-090-097-098-242200-
   Southwest Minnesota

CITY           SKY/WX    TMP DP  RH WIND       PRES   REMARKS
MONTEVIDEO     CLOUDY    48  41  76 N21       30.28S
GRANITE FALLS  CLOUDY    48  43  83 NW15G22   30.28S
CANBY          CLOUDY    46  41  81 NW13      30.31S
MARSHALL       LGT RAIN  45  42  89 N17       30.27R
REDWOOD FALLS  CLOUDY    49  43  80 N12G20    30.24R
OLIVIA         CLOUDY    50  43  76 N13G21    30.24S
PIPESTONE      CLOUDY   N/A N/A N/A NE15G23   30.25R
WINDOM         CLOUDY    52  34  50 N17       30.21S
WORTHINGTON    LGT RAIN  48  43  82 N17       30.22R
JACKSON        CLOUDY    50  41  71 N12G18    30.21R
TRACY          CLOUDY    47  44  90 N18       30.26R
SLAYTON        CLOUDY    48  44  86 N16G23    30.24S
$$
MNZ065>067-074>077-082>085-091>093-242200-
   South Central Minnesota

CITY           SKY/WX    TMP DP  RH WIND       PRES   REMARKS
MANKATO        FAIR      58  36  43 N15       30.17R
NEW ULM        CLOUDY    55  37  50 N13G21    30.19S
ST JAMES       CLOUDY    54  43  66 NW10      30.21R
FAIRMONT       CLOUDY    54  42  64 N22G29    30.17S
GLENCOE        FAIR      55  44  66 N16G24    30.19S
OWATONNA       FAIR      64  39  39 NW15      30.11S
WASECA         FAIR      61  39  44 NW20      30.14R
ALBERT LEA     FAIR      66  37  34 N14       30.11R
$$
MNZ078>079-086>088-094>096-242200-
   Southeast Minnesota

CITY           SKY/WX    TMP DP  RH WIND       PRES   REMARKS
ROCHESTER      CLOUDY    65  42  43 N16       30.08F
RED WING       PTSUNNY   64  27  24 NE14      30.09S
STANTON        CLOUDY    64  40  41 N18       30.11S
DODGE CENTER   FAIR      64  37  36 N13G23    30.10S
WINONA         CLOUDY    70  39  32 N8        30.03R
AUSTIN         FAIR      63  45  51 N10G20    30.09S
PRESTON        CLOUDY    64  41  42 N18G24    30.07S
$$
ABBREVIATIONS USED IN REMARKS
   TC - TEMPERATURES IN CELSIUS
  WCI - WIND CHILL INDEX
   HX - HEAT INDEX
  VSB - VISIBILITY
$$




USA.gov is the U.S. government's official web portal to all federal, state and local government web resources and services.